FENGYUN 1C DEB, 31089

Orbit data source: Space-Track

FENGYUN 1C DEB, 31089 is space debris in SSO originally from a launch on Mon, 10 May 1999 UTC launched from the Taiyaun Space Center, China (TSC). Fengyun 1C debris stems from the Chinese weather satellite Fengyun-1C, which was intentionally destroyed by a Chinese anti-satellite missile in 2007. This event dramatically increased the amount of space debris, with thousands of trackable fragments posing hazards to satellites and human spaceflight. The Fengyun 1C debris cloud has become a focal point in discussions about space sustainability and the need for international regulations to prevent the creation of new debris.

Loading next visibility...
Identifier
31089, 1999-025BGK
Orbit
SSO
Country
Flag of CNCN / PRC
Related business
Manufacturer
Unknown
Mission
Spacecraft
Bus & Motor
Unknown
Mass
Unknown
Launch date (UTC)
1999-05-10 (27 years ago)
Launch vehicle
Unknown
Launch site
Taiyaun Space Center, China (TSC)
Object type
Payload
Rocket body
Debris
Shape & HBR
Unknown shape, 0.1 m
Radar Cross Section
Small (<0.1 m²)

Expand to show TLE details & history
Last TLE update: 2 days ago

TLE from 2 days ago
0 FENGYUN 1C DEB
1 31089U 99025BGK 26170.87563877  .00000290  00000-0  23186-3 0  9997
2 31089  98.9727 310.6675 0205742  58.4851  90.8139 13.88641934706846
Epoch: 2026-06-19T21:00Z
TLE epoch observation values (Epoch: 2026-06-19T21:00:55.189Z)
Latitude
28.01033°
Longitude
-87.86797°
Altitude
942.023 km
Speed
7.381 km/s
True Right ascension
09h 01m 50s
True Declination
27° 52' 18"
Sunlit
Object was in daylight at epoch
Visualization orbit readout
Latitude
Unknown
Longitude
Unknown
Altitude
Unknown
Speed
Unknown
Apparent Right ascension
Unknown
Apparent Declination
Unknown
Sunlit
N/A
Visualization observer readout
Local Sidereal Time
01:12:07
Azimuth
Unknown
Elevation
Unknown
Doppler factor
Unknown
Orbital elements
Apogee altitude
1,080.977 km
Perigee altitude
780.234 km
Semi-major axis
7,308.742 km
Eccentricity
0.02057
Inclination
98.9727°
RAAN
310.6675°
Arg. of periapsis
58.4851°
True anomaly
93.16977°
Mean anomaly
90.8139°
Eccentric anomaly
91.992°
Mean motion
3.47359 °/min
Orbital period
103.64 mins
BSTAR
0.00023186
Loading maneuver chart data...
Computing Atmospheric mass density...

Documentation

Showing up to 5 results
|